Погода Усть-Уса

Погода Усть-Уса : погода сейчас, прогноз погоды и архив. Всё, что Вы хотите узнать о погоде Усть-Уса!

Хотите узнать прогноз погоды Усть-Уса? Тогда Вам сюда: Погода Усть-Уса

Поиск расширенной информации на нашем сайте:

Другие новости

Новости СМИ2

Главная страница сайта

Новости сайта

03.07.2017

Напоминаем, что на нашем специализированном сайте Метеоцентр.Азия вы можете получить высокодетализированные автоматические прогнозы погоды по пунктам России, СНГ и мира в авиационном формате (включающие направление и скорость ветра, видимость, явления погоды, количество и форму облачности, нижнюю и верхнюю границу облачности).

Рекомендуем: Брошюровочные машины выбрать и купить, продажа. Брошюровочная машина в каталоге.

Погода Усть-Уса - сегодня

Время (UTC), дата Ветер
(°,м/с) 
Видим.   Явления Облачность Т
(°С)
Тd
(°С)
f(%) Тe
(°С)
Pmin
(гПа)
dP
(гПа)
Po
(мм)
O2
(г/м3)
Тmin Tmax R s Состояние
почвы
21 13.08.18 190 (Ю) 20000 м    3/0 средняя 
[Ac trans]
+13.2 +9.8 80 +14  990.4  -0.9  736  281           
00 14.08.18 180 (Ю) 20000 м    8/4 1000 м средняя 
[Sc|Ac trans]
+12.2 +9.2 82 +13  989.8  -0.7  736  282           
03 14.08.18 180 (Ю) 5-10{10}  10 км  слаб. дождь  10/10 300 м 
[Frnb|Ns]
+11.4 +10.3 93 +12  989.3  -0.4  735  282  +11.3      мокрая 
15 14.08.18 250 (З) 4{10}  20000 м    9/8 1230 м средняя 
[Sc|Ac trans]
+10.5 +6.8 78 +10  1003  2.5  745  288    +13.3     
21 14.08.18 280 (З) 20000 м    10/10 1320 м 
[Sc]
+9.2 +6.8 85 +9  1006.4  1.6  748  290           
03 15.08.18 250 (З) 20000 м    10/10 750 м 
[Sc]
+8.8 +6.4 85 +8  1008.5  749  291  +8.2        влажная 
06 15.08.18 270 (З) 20000 м    9/3 1000 м средняя 
[Sc|Ac trans]
+11.2 +6 70 +11  1009.4  750  289           
09 15.08.18 310 (СЗ) 20000 м    10/10 1230 м 
[Sc]
+11.1 +6.3 72 +11  1010.1  0.6  751  290           
12 15.08.18 270 (З) 20000 м    9/4 1000 м средняя 
[Sc|Ac trans]
+12 +6.5 69 +12  1010.3  0.3  751  289           
21 15.08.18 230 (ЮЗ) 20000 м    10/10 400 м кучево-дожд. 
[Cb calv]
+9.2 +7.3 88 +10  1011  751  292           
03 16.08.18 280 (З) 20000 м  {дождь}  10/10 270 м 
[Frnb]
+9.5 +8.6 94 +9  1011.4  0.1  752  291  +9    0.5    мокрая 
18 16.08.18 230 (ЮЗ) 20000 м    9/3 1000 м средняя 
[Sc|Ac trans]
+10.2 +8.6 90 +11  1013.7  0.5  753  291           
21 16.08.18 320 (СЗ) 20000 м    9/9 660 м 
[Sc]
+9.3 +6.9 85 +9  1014.1  0.3  754  292           
03 17.08.18 300 (СЗ) 20000 м    10/10 240 м 
[Frnb]
+7.5 +6.3 92 +7  1015.8  755  295  +7.4        влажная 
06 17.08.18 280 (З) 20000 м    8/4 600 м кучево-дожд., средняя, верхняя 
[Cb calv|Ac lent|Cc]
+10 +5.9 76 +10  1016.2  0.5  755  293           
09 17.08.18 360 (С) 20000 м    9/6 600 м кучево-дожд., средняя 
[Cb calv|Ac trans]
+11.1 +5 66 +11  1017.1  0.9  756  292           
18 17.08.18 330 (СЗ) 20000 м    10/10 870 м 
[Sc]
+9.1 +6.7 85 +10  1020  0.8  758  294           
21 17.08.18 020 (С) 20000 м    10/10 750 м 
[Sc]
+8.6 +6.4 86 +9  1020.4  0.4  758  295           
03 18.08.18 070 (В) 20000 м    10/10 300 м 
[Frnb]
+7.2 +6.1 93 +8  1022.2  0.5  760  297  +7        сухая 
18 18.08.18 150 (ЮВ) 20000 м    9/0 средняя 
[Ac trans]
+10.8 +7.8 82 +10  1019.3  -0.7  757  292           
21 18.08.18 150 (ЮВ) 20000 м    9/0 средняя 
[Ac trans]
+9.6 +7.2 85 +9  1018.6  -0.7  757  293           
00 19.08.18 150 (ЮВ) 20000 м    10/0 средняя 
[Ac und]
+9.2 +7 86 +9  1017  -1.6  756  293           
03 19.08.18 150 (ЮВ) 20000 м    10/0 средняя 
[Ac und]
+9.9 +7.4 84 +9  1015.5  -1.5  755  292  +9.2        сухая 
06 19.08.18 170 (Ю) 20000 м    6/4 300 м кучево-дожд., средняя 
[Cb calv|Ac trans]
+12.7 +9.1 79 +13  1014.4  -0.9  754  289           
09 19.08.18 180 (Ю) 20000 м    5/3 1000 м средняя, верхняя 
[Sc|Ac trans|Ci fib]
+15.4 +11.2 76 +18  1012.9  -1.5  753  285           
Время (UTC), дата Ветер
(°,м/с) 
Видим.   Явления Облачность Т
(°С)
Тd
(°С)
f(%) Тe
(°С)
Pmin
(гПа)
dP
(гПа)
Po
(мм)
O2
(г/м3)
Тmin Tmax R s Состояние
почвы

Для получения пояснительной информации подведите курсор к названию столбца.

ПОГОДА Усть-Уса - архив

Всё, что Вы хотите узнать о погоде Усть-Уса - удобно и подробно!

Выберите нужную дату (начиная с 1 января 2015* года) и нажмите кнопку "Найти".
Будут отображены архивные сводки погоды по пункту Усть-Уса, начиная с указанной даты.


Отображать данные в формате CSV (для использования в таблицах Excel)


Внимание! Наш архив погоды предназначен исключительно для личного некоммерческого использования в познавательных целях. Если Вам необходимы официальные справки о состоянии погоды (для производственных, юридических, коммерческих и т.п. целей), обращайтесь в органы Росгидромета.

*Примечание: данная дата относится к архиву по метеостанциям СССР (Россия, СНГ, Балтия).
Архив по метеостанциям Зарубежной Европы и Азии (кроме Китая) хранится 10 дней, по другим регионам земного шара (Китай, Африка, Америка, Австралия, Океания) - 1 день.

Усть-Уса - район местоположения метеостанции


Название, широта, долгота, высота метеостанции:
Усть-Уса 66°ш. 56.9°д. 78 м над ур. моря [Российская Федерация]

Дополнительная информация

В oтличие oт бoльшинства пoгoдных сайтoв мы публикуем пoдрoбную метеoинфoрмацию в детальнoм прoфессиoнальнoм фoрмате.

Характеристики температуры и влажнoсти вoздуха измеряются на высoте 2 м в тени вдали oт зданий и деревьев.
Скoрoсть ветра измеряется на высoте 10 м (на урoвне рoста челoвека скoрoсть ветра ниже в 1.5-2 раза). Если метеoстанция нахoдится в гoрoде или в лесу, тo скoрoсть ветра занижена на 2-4 м/с пo сравнению с oткрытым местoм. Скoрoсть ветра над акватoриями крупных рек и oзёр, а также на вершинах хoлмoв на 2-5 м/с выше, чем в oбычных услoвиях.
Атмoсфернoе давление в разных тoчках местнoсти мoжет значительнo oтличаться oт давления на метеoстанции, в зависимoсти oт услoвий рельефа (при пoдъёме на 10 м давление пoнижается примернo на 1 мм рт.ст.).